Djibouti-1B

operational
NORAD ID: 62402 Int'l Des: 2024-247 Owner: CERD/MONTP Country: DJ
LEOCIRCULAR

About Djibouti-1B

Description loading...

Live Position

Loading 3D Globe...

Upcoming Passes

Altitude History

Altitude vs Time

uPlot chart will show altitude changes over time

Two-Line Element Set

1 62402U 24247AB 26062.15837855 .00046499 00000-0 94416-3 0 9990
2 62402 44.9739 123.6314 0008315 333.3118 26.7343 15.45639995 67072
Epoch: Mar 3, 2026 • Age: 30 hours

Current Status

Altitude 432.2 km
Velocity 7.66 km/s
Sub-Earth Point 41.61°N, 79.53°W
Launch Date Dec 21, 2024
Age 1.1 years
Type other

Technical Details

Classification Payload
Mass 1.00 kg
Dry Mass 1.00 kg
Total Mass 1.00 kg
Length 0.10 m
Diameter 0.10 m
Span 0.10 m
Shape Box
Manufacturer MONTP
Bus Type Cubesat 1U
Phase Status In Orbit
Owner/State CERD/MONTP/DJ

Large Constellations

Loading constellations...